Regional Weather Roundup
Issued by NWS Charleston, SC

Current Version | Previous Version | Graphics & Text | Print | Product List | Glossary On
Versions: 1 2 3 4 5 6 7 8 9 10 11 12 13 14 15 16 17 18 19 20 21 22 23 24 25 26 27 28 29 30 31 32 33 34 35 36 37 38 39 40 41 42 43 44 45 46 47 48 49 50
000
ASUS42 KCHS 240111
RWRCHS

REGIONAL WEATHER ROUNDUP
NATIONAL WEATHER SERVICE CHARLESTON SC
800 PM EST THU FEB 23 2017

NOTE: "FAIR" INDICATES FEW OR NO CLOUDS BELOW 12,000 FEET WITH NO
SIGNIFICANT WEATHER AND/OR OBSTRUCTIONS TO VISIBILITY.

NOT ALL STATIONS ARE QUALITY CONTROLLED. USE DATA WITH CAUTION...
ESPECIALLY DEWPOINT OBSERVATIONS.

SCZ027-030-031-034>040-042>050-240200-
...SOUTHEAST SOUTH CAROLINA...

CITY           SKY/WX    TMP DP  RH WIND       PRES   REMARKS
N CHARLESTON   CLEAR     67  59  75 E8        29.86R
WATERFRONT PRK   N/A     66  62  87 NE9       29.84R
MOUNT PLEASANT FAIR      64  61  88 CALM      29.86R
JOHNS ISLAND   FAIR      66  63  88 NE8       29.86R
PINOPOLIS        N/A     64  61  88 CALM      29.77R
MONCKS CORNER  FAIR      64  57  77 E5        29.87R
SUMMERVILLE    FAIR      63  59  88 CALM      29.87S
BEAUFORT MCAS  PTCLDY    63  61  93 NE5       29.85R
BEAUFORT ARPT  FAIR      64  61  88 E6        29.84S
HILTON HEAD IS CLEAR     66  63  88 NE12      29.84S
WALTERBORO     CLEAR     64  59  82 E3        29.88R
ALLENDALE      CLOUDY    70  59  68 CALM      29.85R

...SOUTHERN MIDLANDS AND PEE DEE...

CITY           SKY/WX    TMP DP  RH WIND       PRES   REMARKS
GEORGETOWN     FAIR      61  57  88 NE7       29.89R
KINGSTREE      FAIR      59  54  82 CALM      29.88S
ORANGEBURG     CLEAR     66  57  72 CALM      29.87R
BARNWELL       MOCLDY    70  59  68 CALM      29.86R
AIKEN          FAIR      59  52  77 NE3       29.90R
MANNING        FAIR      61  55  82 MISG      29.88R
COLUMBIA       PTCLDY    66  52  60 CALM      29.86R
SUMTER         MOCLDY    67  55  66 E6        29.86R
FLORENCE       CLEAR     64  56  75 SE7       29.89R
MYRTLE BEACH   PTCLDY    64  59  82 E12       29.90R
N MYRTLE BEACH PTCLDY    64  59  83 NE6       29.88R

$$

GAZ063-065-086>088-099>101-113>116-118-119-134>141-150-240200-
...SOUTHEAST GEORGIA...

CITY           SKY/WX    TMP DP  RH WIND       PRES   REMARKS
SAVANNAH ARPT  CLEAR     65  59  81 NE6       29.85R
HUNTER AAF     CLEAR     66  65  97 CALM      29.82R
FORT STEWART   CLEAR     64  59  85 CALM      29.81S
STATESBORO     CLEAR     64  64  98 CALM      29.85R
SYLVANIA       CLOUDY   N/A N/A N/A CALM      29.86R
CLAXTON        FAIR     N/A N/A N/A CALM      29.84S

...CSRA...CENTRAL AND FAR SOUTHEAST GEORGIA...

CITY           SKY/WX    TMP DP  RH WIND       PRES   REMARKS
THOMSON        CLEAR     63  58  83 CALM      29.90R
AUGUSTA-BUSH   CLEAR     62  55  77 CALM      29.84R
AUGUSTA-DANIEL CLEAR     71  50  47 E3        29.86R
SWAINSBORO     FAIR      64  59  82 CALM      29.85R
VIDALIA        CLEAR     68  63  83 E5        29.84R
EASTMAN        FAIR      65  51  58 CALM      29.86R
HAZLEHURST     FAIR      70  63  78 E5        29.83R
ALMA           CLEAR     67  61  81 E3        29.82R
WAYCROSS       CLEAR     69  66  88 E5        29.81R
JESUP          FAIR      68  59  73 E6        29.82S
BAXLEY         FAIR      68  64  88 E3        29.83R
BRUNSWICK      CLEAR     64  63  94 NE8       29.82S
SAINT SIMONS   CLEAR     65  61  87 NE12      29.81R

$$

SCZ027-028-034-036>038-045-046-048>050-GAZ119-141-240200-
...LAKE AND SUPPLEMENTAL COASTAL OBSERVATIONS...

STATION/POSITION TIME  TEMP    WIND        PRES    WAVE   SWELL
                       AIR SEA DIR/SP/G            HT/PER HT/PER/DIR
                 (UTC) (F)     (DEG/KT/KT) (MB)    (FT/S) (FT/S/D)
WINYAH BAY       2345   63      50/ 10     1011.0
LAKE MURRAY      0020   66        CALM     1010.5R
ACE BASIN NERRS  2345   68      60/  2     1010.0
FORT PULASKI     0048   64 62   60/ 11/ 14 1010.6R
SAPELO ISLAND    0000   66      40/  9     1009.0

$$

ANZ835-935-AMZ111-154-330-350-352-354-370-450-454-472-240200-
...C-MAN AND BUOY OBSERVATIONS...

STATION/POSITION TIME  TEMP    WIND        PRES    WAVE   SWELL
                       AIR SEA DIR/SP/G            HT/PER HT/PER/DIR
                 (UTC) (F)     (DEG/KT/KT) (MB)    (FT/S) (FT/S/D)
BUOY 41004       2350   71 70   80/ 12/ 16 1009.4    9/ 8   8/130/ 8
BUOY 41008       2350   64 62   40/ 14/ 17 1008.3    7/10   5/130/10
FOLLY BEACH CMAN 0000   64      40/ 13/ 15 1011.0R
CAPERS NEARSHORE 0008   62 60   60/ 12/ 17 1010.4R
FRIPP NEARSHORE  0008   63 61   50/ 12/ 17 1010.0R


STATION/POSITION TIME  TEMP    WIND        PRES    WAVE   SWELL
                       AIR SEA DIR/SP/G            HT/PER HT/PER/DIR
                 (UTC) (F)     (DEG/KT/KT) (MB)    (FT/S) (FT/S/D)
5E ST. MARYS GA  0100      63                N/A     7/ 9   2/110/11
FRYING PAN BUOY  0050   71 71  100/ 14/ 19 1011.4R   7/ 8   5/140/ 8
BUOY 41025       0050   70 74  130/ 12/ 16 1013.3R   6/ 6   3/ 90/11
CAPE LOOKOUT NC  0000   66     130/  8/  9 1012.4R
BUOY 41002       0050   68 69  100/ 23/ 29 1010.2R   9/ 8   7/130/ 8
BUOY 41010       NOT AVBL
ST AUGUSTINE FL  0100   66 67  360/ 17/ 19 1008.2R


$$




USA.gov is the U.S. government's official web portal to all federal, state and local government web resources and services.